This is the latest recevied weather packets stored in our database for station/object IK0TIX. If no packets are shown the sender has not sent any weather packets the latest 10 day(s).
| Time | Temp. | Humidity | Pressure | Rain* | Wind** | Luminosity | Snow |
|---|---|---|---|---|---|---|---|
| 1777585772 | 17.22° C | 65% | 1020 hPa | 0 mm | - | - | - |
| 1777581284 | 17.22° C | 75% | 1019.4 hPa | 0 mm | - | - | - |
| 1777579787 | 17.78° C | 74% | 1019.4 hPa | 0 mm | - | - | - |
| 1777579483 | 18.33° C | 73% | 1019.3 hPa | 0 mm | - | - | - |
| 1777577710 | 19.44° C | 69% | 1019 hPa | 0 mm | - | - | - |
| 1777577378 | 19.44° C | 70% | 1018.9 hPa | 0 mm | - | - | - |
| 1777574978 | 20.56° C | 67% | 1018.5 hPa | 0 mm | - | - | - |
| 1777572586 | 21.11° C | 63% | 1018.2 hPa | 0 mm | - | - | - |
| 1777571675 | 21.67° C | 60% | 1017.9 hPa | 0 mm | - | - | - |
| 1777570192 | 23.33° C | 56% | 1017.7 hPa | 0 mm | - | - | - |
| 1777569287 | 23.89° C | 55% | 1017.5 hPa | 0 mm | - | - | - |
| 1777566870 | 24.44° C | 53% | 1017.2 hPa | 0 mm | - | - | - |
| 1777566581 | 24.44° C | 54% | 1017.2 hPa | 0 mm | - | - | - |
| 1777566011 | 24.44° C | 52% | 1017.1 hPa | 0 mm | - | - | - |
| 1777564770 | 25.56° C | 52% | 1017 hPa | 0 mm | - | - | - |
| 1777562396 | 26.11° C | 50% | 1016.9 hPa | 0 mm | - | - | - |
| 1777561511 | 25.56° C | 52% | 1017 hPa | 0 mm | - | - | - |
| 1777561208 | 25.56° C | 51% | 1017 hPa | 0 mm | - | - | - |
| 1777559388 | 25.56° C | 52% | 1017 hPa | 0 mm | - | - | - |
| 1777557587 | 25° C | 54% | 1017.2 hPa | 0 mm | - | - | - |
| 1777555168 | 25° C | 56% | 1017.4 hPa | 0 mm | - | - | - |
| 1777553391 | 24.44° C | 57% | 1017.3 hPa | 0 mm | - | - | - |
| 1777553082 | 24.44° C | 57% | 1017.3 hPa | 0 mm | - | - | - |
| 1777552769 | 24.44° C | 56% | 1017.4 hPa | 0 mm | - | - | - |
| 1777548589 | 25° C | 57% | 1017.7 hPa | 0 mm | - | - | - |
* Rain latest hour (hover to see other rain measurements)
** Current wind speed in m/s (hover to see current wind gust speed)